Location: Vale
(35.4830°N, 81.3830°W)
Time: 06:01:52
(UTC-05:00)

SR - All Passes

Search period start: 19 December 2014 00:00
Search period end: 29 December 2014 00:00
Orbit: 579 x 884 km, 66.7° (Epoch: 18 December)

Date Brightness Start Highest point End Pass type
(mag) Time Alt. Az. Time Alt. Az. Time Alt. Az.
19 Dec - 01:19:14 10° WSW 01:24:02 26° NW 01:28:40 10° N night (unlit)
19 Dec - 08:22:39 10° NNE 08:25:24 15° NE 08:28:02 10° E daylight
19 Dec - 10:03:25 10° NW 10:07:57 53° WSW 10:12:09 10° S daylight
19 Dec - 22:48:48 10° SSE 22:53:21 24° ESE 22:57:48 10° NE night (unlit)
20 Dec - 00:29:35 10° SW 00:35:15 47° WNW 00:40:40 10° NNE night (unlit)
20 Dec - 09:14:48 10° NNW 09:19:28 65° ENE 09:23:46 10° SE daylight
20 Dec - 22:03:39 10° ESE 22:05:09 11° ESE 22:06:38 10° E night (unlit)
20 Dec - 23:40:42 10° SSW 23:46:37 90° WNW 23:52:18 10° NNE night (unlit)
21 Dec - 01:26:26 10° W 01:29:27 14° NW 01:32:24 10° NNW night (unlit)
21 Dec - 08:26:37 10° N 08:30:45 29° NE 08:34:36 10° ESE daylight
21 Dec - 10:09:06 10° NW 10:12:38 22° WSW 10:16:00 10° SSW daylight
21 Dec - 22:52:31 10° S 22:58:08 47° ESE 23:03:32 10° NE night (unlit)
22 Dec - 00:35:41 10° WSW 00:40:28 26° NW 00:45:04 10° N night (unlit)
22 Dec - 07:39:06 10° NNE 07:41:48 15° NE 07:44:25 10° E daylight
22 Dec - 09:19:51 10° NW 09:24:20 53° WSW 09:28:31 10° S daylight
22 Dec - 22:05:14 10° SSE 22:09:47 24° ESE 22:14:12 10° NE night (unlit)
22 Dec - 23:46:02 10° SW 23:51:40 47° WNW 23:57:04 10° NNE night (unlit)
23 Dec - 08:31:13 10° NNW 08:35:51 65° ENE 08:40:08 10° SE daylight
23 Dec - 21:20:04 10° ESE 21:21:33 11° ESE 21:23:02 10° E night (unlit)
23 Dec - 22:57:08 10° SSW 23:03:02 89° WNW 23:08:41 10° NNE night (unlit)
24 Dec - 00:42:54 10° W 00:45:52 14° NW 00:48:46 10° NNW night (unlit)
24 Dec - 07:43:02 10° N 07:47:07 29° NE 07:50:57 10° ESE daylight
24 Dec - 09:25:30 10° NW 09:29:00 22° WSW 09:32:21 10° SSW daylight
24 Dec - 22:08:57 10° S 22:14:33 47° ESE 22:19:55 10° NE night (unlit)
24 Dec - 23:52:07 10° WSW 23:56:52 25° NW 00:01:27 10° N night (unlit)
25 Dec - 06:55:30 10° NNE 06:58:11 15° NE 07:00:45 10° E visible
25 Dec - 08:36:14 10° NW 08:40:42 52° WSW 08:44:52 10° S daylight
25 Dec - 21:21:38 10° SSE 21:26:11 24° ESE 21:30:35 10° ENE night (unlit)
25 Dec - 23:02:27 10° SW 23:08:04 47° WNW 23:13:26 10° NNE night (unlit)
26 Dec - 07:47:36 10° NNW 07:52:12 65° ENE 07:56:28 10° SE daylight
26 Dec - 20:36:29 10° ESE 20:37:57 11° ESE 20:39:24 10° E night (unlit)
26 Dec - 22:13:32 10° SSW 22:19:26 89° WNW 22:25:03 10° NNE night (unlit)
26 Dec - 23:59:20 10° WNW 00:02:15 14° NW 00:05:06 10° NNW night (unlit)
27 Dec - 06:59:25 10° N 07:03:29 29° NE 07:07:17 10° ESE visible
27 Dec - 08:41:53 10° WNW 08:45:21 22° WSW 08:48:41 10° SSW daylight
27 Dec - 21:25:20 10° S 21:30:56 47° ESE 21:36:17 10° NE night (unlit)
27 Dec - 23:08:32 10° WSW 23:13:15 25° NW 23:17:47 10° N night (unlit)
28 Dec - 06:11:54 10° NNE 06:14:32 15° NE 06:17:04 10° E visible
28 Dec - 07:52:36 10° NW 07:57:03 52° WSW 08:01:12 10° S daylight
28 Dec - 20:38:01 10° SSE 20:42:33 24° ESE 20:46:56 10° ENE night (unlit)
28 Dec - 22:18:50 10° SW 22:24:27 46° WNW 22:29:47 10° NNE night (unlit)
